Change the Weather History Date:

Saturday, November 10, 2012

  Actual Average (KPBG) Record (KPBG)
Temperature  
Mean Temperature 33 °F 39 °F  
Max Temperature 39 °F 48 °F 69 °F (1948)
Min Temperature 27 °F 29 °F 16 °F (1965)
Degree Days  
Heating Degree Days 32 26  
Month to date heating degree days 245  
Since 1 July heating degree days 1028  
Cooling Degree Days 0 0  
Month to date cooling degree days 0  
Year to date cooling degree days 346  
Moisture  
Dew Point 24 °F    
Average Humidity 66    
Maximum Humidity 85    
Minimum Humidity 46    
Precipitation  
Precipitation 0.00 in - 1.53 in (1990)
Month to date precipitation  
Year to date precipitation  
Sea Level Pressure  
Sea Level Pressure 30.32 in    
Wind  
Wind Speed 4 mph (North)    
Max Wind Speed 10 mph    
Max Gust Speed 16 mph    
Visibility 10 miles    
Events      
T = Trace of Precipitation, MM = Missing Value Source: NWS Daily Summary

Daily Weather History Graph

Daily Weather History Graph

Search for Another Location

Airport or City:

Trip Planner

Search our weather history database for the weather conditions in past years. The results will help you decide how hot, cold, wet, or windy it might be!

Date:

Astronomy

Nov. 10, 2012 Rise Set
Actual Time 6:43 AM EST 4:28 PM EST
Civil Twilight 6:12 AM EST 4:59 PM EST
Nautical Twilight 5:37 AM EST 5:35 PM EST
Astronomical Twilight 5:02 AM EST 6:09 PM EST
Moon 2:36 AM EST (11/10) 2:21 PM EST (11/10)
Length of Visible Light 10h 47m
Length of Day
9h 44m
Waning Crescent, 14% of the Moon is Illuminated
Nov 10
Waning Crescent
Nov 13
New
Nov 20
First Quarter
Nov 28
Full
Dec 6
Last Quarter

Hourly Weather History & Observations

Time (EST) Temp. Windchill Dew Point Humidity Pressure Visibility Wind Dir Wind Speed Gust Speed Precip Events Conditions
12:15 AM 39.4 °F 37.2 °F 32.0 °F 75% 30.10 in 10.0 mi WSW 3.5 mph - N/A   Overcast
12:35 AM 39.4 °F 35.2 °F 32.0 °F 75% 30.11 in 10.0 mi WSW 5.8 mph - N/A   Overcast
12:55 AM 39.4 °F 35.2 °F 32.0 °F 75% 30.11 in 10.0 mi West 5.8 mph - N/A   Overcast
1:15 AM 38.3 °F 35.9 °F 31.6 °F 77% 30.12 in 10.0 mi West 3.5 mph - N/A   Overcast
1:35 AM 38.3 °F 35.9 °F 31.8 °F 77% 30.14 in 10.0 mi West 3.5 mph - N/A   Overcast
1:55 AM 38.3 °F 33.9 °F 31.8 °F 77% 30.15 in 10.0 mi West 5.8 mph - N/A   Overcast
2:15 AM 38.3 °F 34.8 °F 31.8 °F 77% 30.15 in 10.0 mi West 4.6 mph - N/A   Overcast
2:35 AM 38.3 °F 33.2 °F 31.8 °F 77% 30.16 in 10.0 mi West 6.9 mph - N/A   Overcast
2:55 AM 37.2 °F 33.6 °F 30.9 °F 78% 30.16 in 10.0 mi WNW 4.6 mph - N/A   Overcast
3:15 AM 36.9 °F - 30.7 °F 79% 30.17 in 10.0 mi Calm Calm - N/A   Mostly Cloudy
3:35 AM 36.9 °F - 31.1 °F 80% 30.18 in 10.0 mi Calm Calm - N/A   Overcast
3:55 AM 36.7 °F - 31.1 °F 80% 30.19 in 10.0 mi Calm Calm - N/A   Overcast
4:15 AM 34.9 °F - 29.3 °F 80% 30.20 in 10.0 mi Calm Calm - N/A   Mostly Cloudy
4:35 AM 34.3 °F - 28.9 °F 81% 30.20 in 10.0 mi Calm Calm - N/A   Clear
4:55 AM 34.0 °F - 29.3 °F 83% 30.22 in 10.0 mi Calm Calm - N/A   Clear
5:35 AM 34.3 °F - 29.8 °F 84% 30.23 in 10.0 mi Calm Calm - N/A   Overcast
5:55 AM 33.8 °F - 29.7 °F 85% 30.24 in 10.0 mi Calm Calm - N/A   Scattered Clouds
6:15 AM 32.4 °F 29.1 °F 28.0 °F 84% 30.25 in 10.0 mi NW 3.5 mph - N/A   Clear
6:35 AM 32.2 °F 27.7 °F 27.7 °F 83% 30.26 in 10.0 mi NW 4.6 mph - N/A   Scattered Clouds
6:55 AM 32.0 °F 28.7 °F 27.3 °F 83% 30.27 in 10.0 mi NW 3.5 mph - N/A   Scattered Clouds
7:15 AM 32.0 °F 28.7 °F 27.3 °F 83% 30.28 in 10.0 mi NNW 3.5 mph - N/A   Clear
7:35 AM 32.0 °F - 27.3 °F 83% 30.29 in 10.0 mi Calm Calm - N/A   Clear
7:55 AM 32.0 °F 28.7 °F 27.5 °F 83% 30.31 in 10.0 mi NNW 3.5 mph - N/A   Clear
8:15 AM 34.2 °F 27.5 °F 25.7 °F 71% 30.32 in 10.0 mi North 8.1 mph 16.1 mph N/A   Clear
8:35 AM 34.3 °F 28.4 °F 23.7 °F 65% 30.33 in 10.0 mi North 6.9 mph - N/A   Clear
8:55 AM 34.3 °F 27.0 °F 22.6 °F 62% 30.34 in 10.0 mi North 9.2 mph - N/A   Clear
9:15 AM 34.3 °F 26.5 °F 21.4 °F 59% 30.34 in 10.0 mi North 10.4 mph - N/A   Clear
9:35 AM 34.3 °F 27.0 °F 21.4 °F 59% 30.35 in 10.0 mi North 9.2 mph - N/A   Clear
9:55 AM 35.8 °F 30.1 °F 21.7 °F 57% 30.35 in 10.0 mi NNW 6.9 mph - N/A   Clear
10:15 AM 36.5 °F 31.8 °F 21.9 °F 56% 30.36 in 10.0 mi North 5.8 mph - N/A   Clear
10:35 AM 36.9 °F 31.4 °F 21.9 °F 55% 30.36 in 10.0 mi NNE 6.9 mph - N/A   Clear
10:55 AM 36.9 °F 30.7 °F 21.6 °F 54% 30.36 in 10.0 mi North 8.1 mph - N/A   Clear
11:15 AM 36.9 °F 33.1 °F 21.0 °F 53% 30.36 in 10.0 mi NW 4.6 mph - N/A   Clear
11:35 AM 38.1 °F 34.6 °F 21.9 °F 52% 30.37 in 10.0 mi NNW 4.6 mph - N/A   Clear
11:55 AM 37.8 °F 34.2 °F 21.6 °F 52% 30.37 in 10.0 mi NW 4.6 mph - N/A   Clear
12:15 PM 38.5 °F 34.1 °F 21.7 °F 51% 30.37 in 10.0 mi North 5.8 mph - N/A   Clear
12:35 PM 38.3 °F 33.9 °F 21.4 °F 51% 30.36 in 10.0 mi North 5.8 mph - N/A   Clear
12:55 PM 38.3 °F 33.2 °F 21.4 °F 51% 30.36 in 10.0 mi North 6.9 mph - N/A   Clear
1:15 PM 38.8 °F 34.6 °F 21.7 °F 50% 30.35 in 10.0 mi North 5.8 mph - N/A   Clear
1:35 PM 38.8 °F 34.6 °F 21.2 °F 49% 30.35 in 10.0 mi NNW 5.8 mph - N/A   Clear
1:55 PM 39.4 °F 37.2 °F 20.7 °F 47% 30.36 in 10.0 mi NNW 3.5 mph - N/A   Clear
2:15 PM 39.6 °F 36.3 °F 20.3 °F 46% 30.35 in 10.0 mi North 4.6 mph - N/A   Clear
2:35 PM 39.2 °F 37.0 °F 21.0 °F 48% 30.35 in 10.0 mi North 3.5 mph - N/A   Clear
2:55 PM 39.2 °F 37.0 °F 21.4 °F 49% 30.35 in 10.0 mi NNW 3.5 mph - N/A   Clear
3:15 PM 39.0 °F - 21.0 °F 49% 30.36 in 10.0 mi Calm Calm - N/A   Clear
3:35 PM 38.7 °F - 20.7 °F 48% 30.36 in 10.0 mi Calm Calm - N/A   Clear
3:55 PM 38.3 °F - 20.3 °F 48% 30.36 in 10.0 mi Calm Calm - N/A   Clear
4:15 PM 36.9 °F - 20.5 °F 52% 30.36 in 10.0 mi Calm Calm - N/A   Clear
4:35 PM 36.9 °F - 21.2 °F 53% 30.36 in 10.0 mi Calm Calm - N/A   Clear
4:55 PM 34.3 °F - 19.9 °F 56% 30.37 in 10.0 mi Calm Calm - N/A   Clear
5:15 PM 34.3 °F - 21.4 °F 59% 30.38 in 10.0 mi Calm Calm - N/A   Clear
5:35 PM 33.6 °F - 21.2 °F 60% 30.38 in 10.0 mi Calm Calm - N/A   Clear
5:55 PM 32.0 °F - 21.7 °F 66% 30.39 in 10.0 mi Calm Calm - N/A   Clear
6:15 PM 29.7 °F - 21.0 °F 70% 30.39 in 10.0 mi Calm Calm - N/A   Clear
6:35 PM 28.9 °F - 21.4 °F 73% 30.40 in 10.0 mi Calm Calm - N/A   Clear
6:55 PM 30.0 °F - 21.6 °F 71% 30.40 in 10.0 mi Calm Calm - N/A   Clear
7:15 PM 28.8 °F - 21.6 °F 74% 30.41 in 10.0 mi Calm Calm - N/A   Clear
7:35 PM 27.3 °F 23.4 °F 21.0 °F 77% 30.42 in 10.0 mi ENE 3.5 mph - N/A   Clear
7:55 PM 29.5 °F 25.9 °F 21.4 °F 72% 30.41 in 10.0 mi East 3.5 mph - N/A   Clear
8:15 PM 29.7 °F - 20.8 °F 70% 30.41 in 10.0 mi Calm Calm - N/A   Clear
8:35 PM 29.7 °F 24.7 °F 22.3 °F 74% 30.42 in 10.0 mi East 4.6 mph - N/A   Clear
8:55 PM 31.8 °F 25.4 °F 23.9 °F 73% 30.41 in 10.0 mi East 6.9 mph - N/A   Clear
9:15 PM 32.0 °F 26.4 °F 22.8 °F 69% 30.41 in 10.0 mi ESE 5.8 mph - N/A   Clear
9:35 PM 32.0 °F 27.5 °F 21.7 °F 66% 30.40 in 10.0 mi East 4.6 mph - N/A   Clear
9:55 PM 32.0 °F 24.8 °F 21.2 °F 64% 30.40 in 10.0 mi ESE 8.1 mph - N/A   Scattered Clouds
10:15 PM 32.0 °F 24.8 °F 21.2 °F 64% 30.38 in 10.0 mi East 8.1 mph - N/A   Scattered Clouds
10:35 PM 32.0 °F 26.4 °F 21.6 °F 65% 30.39 in 10.0 mi East 5.8 mph - N/A   Mostly Cloudy
10:55 PM 32.0 °F 27.5 °F 21.0 °F 64% 30.39 in 10.0 mi ESE 4.6 mph - N/A   Overcast
11:15 PM 32.9 °F 27.5 °F 21.2 °F 62% 30.39 in 10.0 mi SE 5.8 mph - N/A   Overcast
11:35 PM 33.3 °F 27.9 °F 21.7 °F 63% 30.38 in 10.0 mi East 5.8 mph - N/A   Overcast
11:55 PM 34.2 °F 28.2 °F 21.9 °F 61% 30.37 in 10.0 mi East 6.9 mph - N/A   Overcast